Weather History for Hoquiam, WA

Change the Weather History Date:

Sunday, November 4, 2012

  Actual Average Record
Temperature  
Mean Temperature 56 °F 48 °F  
Max Temperature 59 °F 54 °F 67 °F (1980)
Min Temperature 55 °F 42 °F 30 °F (1961)
Degree Days  
Heating Degree Days 9 17  
Month to date heating degree days 66  
Cooling Degree Days 0 0  
Month to date cooling degree days 0  
Year to date cooling degree days 23  
Growing Degree Days 6 (Base 50)    
Moisture  
Dew Point 56 °F    
Average Humidity 98    
Maximum Humidity 100    
Minimum Humidity 93    
Precipitation  
Precipitation 0.66 in 0.34 in 1.78 in (1969)
Month to date precipitation 1.37  
Year to date precipitation 47.79  
Sea Level Pressure  
Sea Level Pressure 30.22 in    
Wind  
Wind Speed 8 mph (ESE)    
Max Wind Speed 20 mph    
Max Gust Speed 26 mph    
Visibility 4 miles    
Events Rain    
T = Trace of Precipitation, MM = Missing Value Source: NWS Daily Summary

Daily Weather History Graph

Daily Weather History Graph

Search for Another Location

Airport:

Trip Planner

Search our weather history database for the weather conditions in past years. The results will help you decide how hot, cold, wet, or windy it might be!

Date:

Astronomy

Nov. 04, 2012 Rise Set
Actual Time 7:03 AM PST 4:54 PM PST
Civil Twilight 6:31 AM PST 5:26 PM PST
Nautical Twilight 5:55 AM PST 6:02 PM PST
Astronomical Twilight 5:19 AM PST 6:37 PM PST
Moon 9:35 PM PST (11/4) 11:54 AM PST (11/4)
Length of Visible Light 10h 54m
Length of Day
9h 50m
Waning Gibbous, 71% of the Moon is Illuminated
Nov 4
Waning Gibbous
Nov 6
Last Quarter
Nov 13
New
Nov 20
First Quarter
Nov 28
Full

Hourly Weather History & Observations

Time (PST) Temp. Dew Point Humidity Pressure Visibility Wind Dir Wind Speed Gust Speed Precip Events Conditions
12:18 AM 55.4 °F 53.6 °F 94% 30.15 in 3.0 mi ENE 6.9 mph - 0.02 in Rain Light Rain
12:53 AM 55.0 °F 55.0 °F 100% 30.16 in 4.0 mi ENE 5.8 mph - 0.03 in   Overcast
1:17 AM 55.4 °F 55.4 °F 100% 30.16 in 2.5 mi ENE 5.8 mph - N/A   Overcast
1:30 AM 55.4 °F 55.4 °F 100% 30.16 in 2.0 mi East 4.6 mph - N/A   Overcast
1:32 AM 55.4 °F 55.4 °F 100% 30.17 in 1.8 mi East 5.8 mph - N/A   Overcast
1:49 AM 55.4 °F 55.4 °F 100% 30.16 in 2.0 mi ENE 5.8 mph - N/A   Overcast
1:53 AM 55.0 °F 55.0 °F 100% 30.17 in 2.0 mi ENE 5.8 mph - N/A   Overcast
1:05 AM 55.4 °F 55.4 °F 100% 30.16 in 5.0 mi ENE 4.6 mph - N/A   Overcast
1:17 AM 55.4 °F 55.4 °F 100% 30.16 in 7.0 mi ENE 4.6 mph - N/A   Overcast
1:34 AM 55.4 °F 55.4 °F 100% 30.16 in 2.5 mi ENE 4.6 mph - N/A   Overcast
1:41 AM 55.4 °F 55.4 °F 100% 30.16 in 3.0 mi ENE 5.8 mph - N/A   Overcast
1:53 AM 55.0 °F 55.0 °F 100% 30.16 in 3.0 mi ENE 6.9 mph - 0.01 in   Overcast
2:20 AM 55.4 °F 55.4 °F 100% 30.16 in 4.0 mi ENE 4.6 mph - N/A   Overcast
2:34 AM 55.4 °F 55.4 °F 100% 30.16 in 3.0 mi NE 6.9 mph - N/A   Overcast
2:53 AM 55.0 °F 55.0 °F 100% 30.18 in 5.0 mi NE 5.8 mph - N/A   Overcast
3:49 AM 55.4 °F 55.4 °F 100% 30.15 in 4.0 mi ENE 6.9 mph - N/A   Overcast
3:53 AM 55.9 °F 55.0 °F 97% 30.16 in 4.0 mi ENE 5.8 mph - N/A   Overcast
4:53 AM 55.9 °F 55.0 °F 97% 30.17 in 5.0 mi NE 6.9 mph - N/A   Overcast
5:41 AM 55.4 °F 55.4 °F 100% 30.16 in 2.5 mi ENE 8.1 mph - 0.01 in Rain Light Rain
5:51 AM 55.4 °F 55.4 °F 100% 30.15 in 2.5 mi ENE 6.9 mph - 0.01 in Rain Light Rain
5:53 AM 55.9 °F 55.0 °F 97% 30.17 in 2.5 mi ENE 8.1 mph - 0.01 in Rain Light Rain
6:03 AM 55.4 °F 55.4 °F 100% 30.15 in 3.0 mi ENE 8.1 mph - 0.00 in   Overcast
6:30 AM 55.4 °F 55.4 °F 100% 30.15 in 4.0 mi NE 9.2 mph - 0.01 in   Overcast
6:53 AM 55.9 °F 55.0 °F 97% 30.17 in 3.0 mi ENE 8.1 mph - 0.01 in   Overcast
7:07 AM 55.4 °F 55.4 °F 100% 30.16 in 2.5 mi ENE 8.1 mph - 0.00 in Rain Light Rain
7:24 AM 55.4 °F 55.4 °F 100% 30.17 in 3.0 mi ENE 8.1 mph - 0.00 in   Overcast
7:33 AM 55.4 °F 55.4 °F 100% 30.17 in 2.5 mi ENE 8.1 mph - 0.00 in   Overcast
7:43 AM 55.4 °F 55.4 °F 100% 30.18 in 2.0 mi ENE 6.9 mph - 0.00 in   Overcast
7:48 AM 55.4 °F 55.4 °F 100% 30.18 in 1.8 mi ENE 5.8 mph - 0.00 in   Overcast
7:53 AM 55.9 °F 55.9 °F 100% 30.19 in 1.8 mi ENE 8.1 mph - 0.00 in   Overcast
8:53 AM 57.0 °F 57.0 °F 100% 30.21 in 1.2 mi ENE 6.9 mph - 0.02 in   Overcast
9:20 AM 57.2 °F 57.2 °F 100% 30.20 in 0.8 mi East 8.1 mph - N/A   Overcast
9:53 AM 57.0 °F 57.0 °F 100% 30.23 in 0.8 mi East 6.9 mph - 0.01 in   Overcast
10:01 AM 57.2 °F 57.2 °F 100% 30.22 in 1.0 mi SE 6.9 mph - N/A   Overcast
10:53 AM 57.0 °F 57.0 °F 100% 30.25 in 1.5 mi SSE 5.8 mph - 0.01 in   Overcast
11:43 AM 57.2 °F 57.2 °F 100% 30.24 in 2.5 mi South 6.9 mph - 0.01 in   Overcast
11:53 AM 57.9 °F 57.0 °F 97% 30.25 in 2.5 mi South 13.8 mph 18.4 mph 0.01 in   Overcast
12:01 PM 57.2 °F 57.2 °F 100% 30.24 in 4.0 mi South 11.5 mph - N/A   Overcast
12:53 PM 57.9 °F 57.0 °F 97% 30.27 in 5.0 mi South 13.8 mph - N/A   Overcast
1:53 PM 57.9 °F 55.9 °F 93% 30.26 in 10.0 mi South 17.3 mph - N/A   Overcast
2:53 PM 57.9 °F 55.9 °F 93% 30.25 in 10.0 mi South 12.7 mph 21.9 mph N/A   Overcast
3:53 PM 57.9 °F 55.9 °F 93% 30.25 in 6.0 mi South 11.5 mph 19.6 mph 0.01 in Rain Light Rain
4:34 PM 57.2 °F 55.4 °F 94% 30.25 in 2.5 mi South 16.1 mph - 0.02 in   Overcast
4:53 PM 57.9 °F 55.9 °F 93% 30.26 in 3.0 mi South 13.8 mph - 0.03 in Rain Light Rain
5:03 PM 57.2 °F 55.4 °F 94% 30.24 in 4.0 mi South 15.0 mph 23.0 mph 0.01 in Rain Light Rain
5:37 PM 57.2 °F 55.4 °F 94% 30.24 in 10.0 mi South 18.4 mph 23.0 mph 0.01 in   Overcast
5:53 PM 57.0 °F 55.9 °F 96% 30.25 in 10.0 mi South 19.6 mph 26.5 mph 0.01 in   Overcast
6:23 PM 57.2 °F 55.4 °F 94% 30.25 in 2.0 mi South 16.1 mph - 0.02 in   Overcast
6:38 PM 57.2 °F 55.4 °F 94% 30.25 in 4.0 mi South 16.1 mph - 0.02 in   Overcast
6:53 PM 57.0 °F 55.9 °F 96% 30.28 in 5.0 mi South 15.0 mph - 0.03 in Rain Light Rain
7:02 PM 57.2 °F 55.4 °F 94% 30.27 in 1.8 mi South 16.1 mph - 0.05 in Rain Rain
7:16 PM 57.2 °F 55.4 °F 94% 30.27 in 2.0 mi South 16.1 mph - 0.15 in Rain Rain
7:29 PM 57.2 °F 55.4 °F 94% 30.27 in 3.0 mi South 15.0 mph - 0.20 in Rain Rain
7:50 PM 55.4 °F 55.4 °F 100% 30.27 in 3.0 mi South 15.0 mph - 0.26 in Rain Rain
7:53 PM 57.0 °F 55.9 °F 96% 30.28 in 3.0 mi South 15.0 mph - 0.26 in Rain Rain
8:06 PM 57.2 °F 55.4 °F 94% 30.26 in 3.0 mi South 16.1 mph - 0.05 in Rain Rain
8:09 PM 57.2 °F 55.4 °F 94% 30.27 in 2.5 mi South 15.0 mph - 0.06 in Rain Rain
8:18 PM 57.2 °F 55.4 °F 94% 30.27 in 5.0 mi South 13.8 mph - 0.07 in Rain Light Rain
8:53 PM 55.9 °F 55.0 °F 97% 30.28 in 3.0 mi SSW 16.1 mph - 0.18 in Rain Light Rain
9:04 PM 55.4 °F 55.4 °F 100% 30.27 in 4.0 mi SW 11.5 mph - 0.01 in Rain Light Rain
9:17 PM 55.4 °F 55.4 °F 100% 30.28 in 6.0 mi West 6.9 mph - 0.02 in Rain Light Rain
9:45 PM 55.4 °F 55.4 °F 100% 30.29 in 4.0 mi West 9.2 mph - 0.02 in Rain Light Rain
9:53 PM 55.9 °F 55.0 °F 97% 30.31 in 4.0 mi WSW 8.1 mph - 0.03 in   Overcast
10:42 PM 55.4 °F 55.4 °F 100% 30.30 in 3.0 mi WSW 9.2 mph - N/A   Overcast
10:53 PM 55.0 °F 54.0 °F 96% 30.33 in 7.0 mi West 12.7 mph - N/A   Overcast